Regional Weather Roundup
Issued by NWS

Home | Current Version | Previous Version | Graphics & Text | Print | Product List | Glossary On
Versions: 1 2 3 4 5 6 7 8 9 10 11 12 13 14 15 16 17 18 19 20 21 22 23 24 25 26 27 28 29 30 31 32 33 34 35 36 37 38 39 40 41 42 43 44 45 46 47 48 49 50
000
ASUS45 KBOI 231510
RWRID

IDAHO REGIONAL WEATHER ROUNDUP
NATIONAL WEATHER SERVICE BOISE ID
900 AM MDT SAT MAY 23 2015

NOTE: "FAIR" INDICATES FEW OR NO CLOUDS BELOW 12000 FEET
WITH NO SIGNIFICANT WEATHER AND/OR OBSTRUCTIONS TO VISIBILITY

IDZ012-014-231600-
SOUTHWEST IDAHO


CITY           SKY/WX    TMP DP  RH WIND       PRES   REMARKS
BOISE          PTSUNNY   58  51  78 NW5       29.91R
CALDWELL       PTSUNNY   61  46  59 W12       29.92S
MOUNTAIN HOME  CLOUDY    58  50  74 NW15      29.90S
$$

IDZ016-017-231600-
SOUTHCENTRAL IDAHO


CITY           SKY/WX    TMP DP  RH WIND       PRES   REMARKS
BURLEY         LGT RAIN  51  49  92 W8        29.91R FOG
JEROME         CLOUDY    51  48  89 W5        29.93R
TWIN FALLS     CLOUDY    54  49  83 W12       29.90R
$$

IDZ019>023-231600-
SOUTHEAST IDAHO


CITY           SKY/WX    TMP DP  RH WIND       PRES   REMARKS
IDAHO FALLS    CLOUDY    53  47  79 CALM      29.92S
POCATELLO      CLOUDY    53  52  96 E5        29.92S
REXBURG        PTSUNNY   53  47  79 CALM      29.92S
$$

IDZ006-010-011-018-031-032-231600-
CENTRAL IDAHO MOUNTAINS


CITY           SKY/WX    TMP DP  RH WIND       PRES   REMARKS
MCCALL         PTSUNNY   55  43  63 NW7       29.96S
HAILEY         PTSUNNY   50  46  87 NW7       29.95S
STANLEY          N/A     42  40  92 NW3       30.02S
SALMON         PTSUNNY   54  46  76 SW3       29.97F
CHALLIS        PTSUNNY   57  42  57 CALM      29.96S
$$

IDZ002-004-006-007-026-231600-
NORTHERN IDAHO


CITY           SKY/WX    TMP DP  RH WIND       PRES   REMARKS
LEWISTON       PTSUNNY   63  52  67 NE3       29.99R
LOWELL           N/A     57  51  80 S3        29.99F
COEUR D`ALENE  SUNNY     59  48  67 CALM      30.00S
MULLAN PASS    SUNNY     54  36  50 CALM      30.09R
$$


USA.gov is the U.S. government's official web portal to all federal, state and local government web resources and services.